Regional Weather Roundup
Issued by NWS

Home | Current Version | Previous Version | Graphics & Text | Print | Product List | Glossary On
Versions: 1 2 3 4 5 6 7 8 9 10 11 12 13 14 15 16 17 18 19 20 21 22 23 24 25 26 27
000
ASUS45 KTFX 250010
RWRMT
MONTANA REGIONAL WEATHER ROUNDUP
NATIONAL WEATHER SERVICE GREAT FALLS MT
600 PM MDT MON APR 24 2017

NOTE: "FAIR" INDICATES FEW OR NO CLOUDS BELOW 12000 FEET WITH NO
SIGNIFICANT WEATHER AND/OR OBSTRUCTIONS TO VISIBILITY.

MTZ001>007-043-250100-
WEST OF THE DIVIDE

CITY           SKY/WX    TMP DP  RH WIND       PRES   REMARKS
KALISPELL      LGT RAIN  50  39  66 N6        29.62S
MISSOULA       CLOUDY    50  37  61 NW23G30   29.62R
BUTTE          CLOUDY    46  28  49 W9        29.59R
MULLAN PASS    PTSUNNY   36  32  85 CALM      29.63F
ANACONDA         N/A     43  36  75 W9        29.60R
DEER LODGE       N/A     48  30  49 W7        29.61S
EUREKA           N/A     48  37  66 SW5       29.65R
HAMILTON         N/A     46  37  71 N8        29.63R
LIBBY            N/A     54  34  47 W6        29.60S
$$

MTZ008-052>055-250100-
SOUTHWEST MONTANA

CITY           SKY/WX    TMP DP  RH WIND       PRES   REMARKS
BOZEMAN        CLOUDY    52  30  43 CALM      29.56S
DILLON         CLOUDY    46  34  62 NW16      29.58R
W YELLOWSTONE  CLOUDY    36  32  87 SW13      29.61S WCI  27
ENNIS          MOSUNNY   46  32  57 VRB6      29.61S
THREE FORKS      N/A     46  35  65 NW13      29.62R
$$

MTZ009-010-012-014-046-048-049-054-250100-
EAST SLOPES AND CENTRAL MONTANA

CITY           SKY/WX    TMP DP  RH WIND       PRES   REMARKS
CUT BANK       CLOUDY    47  35  63 N14       29.62R
GREAT FALLS    CLOUDY    52  33  48 N6        29.58R
MALMSTROM AFB  MOSUNNY   53  34  48 N14       29.58R
HELENA         MOSUNNY   55  30  38 N8        29.55S
AUGUSTA        PTSUNNY   47  34  60 NW16G28   29.60R
BOWMANS CRNR   PTSUNNY   47  31  53 N18       29.57R
CHOTEAU          N/A     48  36  61 N14       29.62R
FAIRFIELD      PTSUNNY   51  35  53 NE10      29.58R
POWER            N/A     50  35  55 NE14      29.58R
RAYNESFORD     SHOWER    44  38  77 E9        29.59R
ULM              N/A     54  36  51 N22       29.57S
$$

MTZ011-013-016-021-045-047-050-051-250100-
NORTH CENTRAL MONTANA

CITY           SKY/WX    TMP DP  RH WIND       PRES   REMARKS
HAVRE          MOSUNNY   56  37  49 NE10      29.60S
LEWISTOWN      CLOUDY    45  37  73 E14       29.60S
N BAR RANCH    CLOUDY    41  37  87 NW5       29.64S
CHINOOK          N/A     54  37  54 E8        29.62R
DENTON           N/A     51  39  64 MISG      29.55S
FORT BENTON      N/A     48  37  66 MISG      29.63R
GEYSER           N/A     49  38  65 SE12      29.58S
GRASS RANGE    LGT RAIN  42  39  89 SW9       29.59S
JUDITH GAP     PTSUNNY   46  36  67 N16       29.58S
STANFORD       LGT RAIN  46  39  76 SW10      29.59S
WINIFRED         N/A     49  39  68 E18       29.58F
$$

MTZ017>020-022>027-061-062-250100-
NORTHEAST MONTANA

CITY           SKY/WX    TMP DP  RH WIND       PRES   REMARKS
GLASGOW        CLOUDY    43  30  60 NE17      29.70R
JORDAN           N/A     48  37  65 E12       29.64R
SIDNEY         CLOUDY    37  29  72 NE12      29.73R WCI  29
WOLF POINT     CLOUDY    38  28  67 NE17      29.74R WCI  28
MALTA          CLOUDY    48  36  61 E14       29.66R
PLENTYWOOD       N/A     30  27  86 E13       29.77S WCI  20
POPLAR           N/A     34  27  75 NE14      29.75S WCI  24
$$

MTZ028>42-056>058-250100-
SOUTHCENTRAL AND SOUTHEAST MONTANA

CITY           SKY/WX    TMP DP  RH WIND       PRES   REMARKS
BAKER          CLOUDY    47  36  65 N13       29.64R
BILLINGS       CLOUDY    50  42  74 NE18      29.56R
LIVINGSTON     CLOUDY    51  35  54 SW12      29.54F
MILES CITY     MOSUNNY   51  38  60 NE13      29.61S
BIG TIMBER     PTSUNNY   48  39  71 N12       29.58R HAZE
LAUREL           N/A     52  43  71 NE22G30   29.55S
ROUNDUP          N/A     50  38  63 E13       29.55S
$$

REGIONAL REPORTS...DAKOTAS

CITY           SKY/WX    TMP DP  RH WIND       PRES   REMARKS
WILLISTON      CLOUDY    35  27  72 NE13      29.76R WCI  26
MINOT          CLOUDY    34  28  79 N9        29.75R WCI  27
DICKINSON      CLOUDY    35  29  78 NE14      29.66R WCI  26
BEACH          CLOUDY    37  36  93 NE14      29.70S WCI  29
TIOGA          CLOUDY    28  28 100 NE16      29.76S WCI  17
WATFORD CITY   CLOUDY    34  28  80 NE13      29.73S WCI  25
BISMARCK       CLOUDY    38  31  76 N8        29.71R
GRAND FORKS    CLOUDY    36  35  96 N17       29.63R WCI  26
FARGO          CLOUDY    42  41  96 NW18      29.55R
BUFFALO SD       N/A     48  40  73 NE16      29.56R
RAPID CITY     SUNNY     58  39  49 NE15      29.58R
$$

REGIONAL REPORTS...WYOMING/IDAHO/WASHINGTON

CITY           SKY/WX    TMP DP  RH WIND       PRES   REMARKS
GILLETTE       LGT RAIN  48  44  86 S22G30    29.56R
SHERIDAN       LGT RAIN  50  44  80 CALM      29.55R
BUFFALO WY     CLOUDY    53  37  54 N10       29.54F
CODY           LGT RAIN  43  39  86 N6        29.58R
YELLOWSTONE LA   N/A     34  29  82 W8        29.63S WCI  27
IDAHO FALLS    CLOUDY    47  42  83 S20G29    29.62F
SALMON         CLOUDY    45  36  70 CALM      29.61F
BOISE          PTSUNNY   52  42  69 W12       29.70S
SPOKANE        PTSUNNY   50  37  61 W8        29.67F
$$

REGIONAL REPORTS...ALBERTA

CITY           SKY/WX    TMP DP  RH WIND       PRES   REMARKS
EDMONTON       MIX PCPN  34  32  93 N6        29.78S WCI  29
CALGARY        CLOUDY    39  34  81 NE13      29.69R WCI  32
LETHBRIDGE     CLOUDY    45  37  76 NE12      29.66R
MEDICINE HAT   CLOUDY    48  41  76 NE10G17   29.66R
WATERTON GATE    N/A     37  34  87 NE5         N/A
MILK RIVER       N/A     46  37  71 N13         N/A
$$

REGIONAL REPORTS...SASKATCHEWAN

CITY           SKY/WX    TMP DP  RH WIND       PRES   REMARKS
SWIFT CURRENT  CLOUDY    32  27  80 E16       29.74R WCI  21
REGINA         CLOUDY    30  23  74 E13G22    29.86R WCI  20
SASKATOON      CLOUDY    32  25  74 E16       29.91R WCI  21
CYPRESS HILLS    N/A     36  34  93 E6          N/A  WCI  31
VAL MARIE        N/A     39  30  70 E17         N/A  WCI  30
ASSINIBOIA       N/A     37  36  93 E7          N/A
$$




USA.gov is the U.S. government's official web portal to all federal, state and local government web resources and services.